www.pogodaiklimat.ru

Погода и климат >> Архив погоды >> Ирак >> Амара


ПОГОДА в Амаре

  • Прогноз погоды в Амаре
  • Монитор погоды в Амаре

АРХИВ ПОГОДЫ в Амаре

Время (UTC), дата Ветер
(напр.,м/с)
 
Видим.   Явления Облачность Т
(С)
Тd
(С)
f
(%)
Тe
(С)
Тes
(С)
Комфортность P
(гПа)
Po
(гПа)
Тmin
(С)
Tmax
(С)
R
(мм)
R24
(мм)
S
(см)
06 16.08 С 8 8000 м пыльный позёмок ясно +39.2 +11.9 20 +39 +41 очень
жарко
1001.1 1000.1 +32.4
12 16.08 С 8 8000 м пыльный позёмок ясно +46.0 +11.5 13 +45 +47 опасность
перегрева
999.8 998.8
15 16.08 С 5 10 км ясно +43.0 +11.3 15 +42 +42 опасность
перегрева
998.2 997.2
18 16.08 СЗ 4 10 км ясно +38.0 +11.4 20 +37 +37 очень
жарко
999.2 998.2 +46.5
21 16.08 СЗ 3 10 км ясно +34.6 +11.8 25 +34 +34 очень
жарко
999.2 998.2
00 17.08 СЗ 4 10 км ясно +33.5 +11.2 26 +33 +33 жарко 999.2 998.2
03 17.08 СЗ 4 10 км ясно +32.0 +11.6 29 +32 +33 жарко 999.2 998.2
06 17.08 С 6 10 км ясно +38.4 +13.6 23 +39 +43 очень
душно
998.7 997.7 +31.5
09 17.08 С 5 10 км ясно +43.4 +14.2 18 +44 +54 опасность
перегрева
998.4 997.4
12 17.08 СЗ 4 10 км ясно +44.2 +13.6 17 +44 +51 опасность
перегрева
997.5 996.5
15 17.08 СЗ 4 10 км ясно +41.0 +12.8 19 +41 +41 опасность
перегрева
997.1 996.1
18 17.08 СЗ 3 10 км ясно +35.0 +15.7 32 +37 +37 очень
душно
997.7 996.7 +44.6
21 17.08 СЗ 1 10 км ясно +31.0 +17.6 45 +35 +35 очень
душно
997.7 996.7
00 18.08 СЗ 1 10 км ясно +28.2 +16.7 50 +32 +32 душно 998.1 997.1
03 18.08 СЗ 2 10 км ясно +27.0 +13.5 43 +29 +29 жарко 998.6 997.6
06 18.08 З 2 10 км ясно +38.4 +13.6 23 +39 +50 очень
душно
999.7 998.7 +26.5
09 18.08 СЗ 3 10 км ясно +42.8 +12.6 17 +42 +59 опасность
перегрева
1000.0 999.0
15 18.08 З 3 10 км ясно +41.8 +12.3 18 +41 +41 опасность
перегрева
999.5 998.5
18 18.08 СЗ 2 10 км ясно +35.7 +12.1 24 +35 +35 очень
жарко
1000.4 999.4 +44.7
21 18.08 З 1 10 км ясно +32.9 +11.8 28 +33 +33 жарко 1001.3 1000.3
00 19.08 СЗ 1 10 км ясно +30.7 +13.2 34 +32 +32 жарко 1001.3 1000.3
03 19.08 СЗ 2 10 км ясно +32.5 +16.2 38 +35 +36 душно 1002.1 1001.1
06 19.08 З 2 10 км ясно +37.0 +17.7 32 +40 +52 опасность
солнечного
удара
1003.0 1002.0 +29.6
09 19.08 СЗ 3 10 км ясно +44.8 +18.4 22 +48 +64 опасность
перегрева
1002.8 1001.8
12 19.08 СЗ 3 10 км ясно +46.2 +18.9 21 +50 +58 опасность
перегрева
1001.9 1000.9
15 19.08 СЗ 2 10 км ясно +43.4 +18.0 23 +46 +46 опасность
перегрева
1001.9 1000.9
18 19.08 СЗ 1 10 км ясно +38.0 +16.7 29 +41 +41 опасность
перегрева
1002.9 1001.9 +46.5
21 19.08 З 2 10 км ясно +35.0 +16.1 32 +37 +37 очень
душно
1002.6 1001.6
00 20.08 СЗ 1 10 км ясно +32.0 +15.3 37 +34 +34 душно 1002.6 1001.6
03 20.08 СЗ 1 10 км ясно +32.5 +15.7 36 +35 +35 душно 1002.9 1001.9
06 20.08 СЗ 2 10 км ясно +37.0 +16.5 30 +39 +51 опасность
солнечного
удара
1003.9 1002.9 +32.0
09 20.08 С 2 10 км ясно +44.8 +15.2 18 +46 +65 опасность
перегрева
1003.6 1002.6
12 20.08 СЗ 2 10 км ясно +47.6 +13.5 14 +48 +58 опасность
перегрева
1002.4 1001.4
15 20.08 СЗ 2 10 км ясно +44.2 +12.5 16 +44 +44 опасность
перегрева
1001.8 1000.8
18 20.08 С 4 10 км ясно +39.4 +13.3 21 +39 +39 очень
жарко
1002.2 1001.2 +48.0
21 20.08 СЗ 3 10 км ясно +35.4 +12.5 25 +35 +35 очень
жарко
1002.2 1001.2
00 21.08 СЗ 3 10 км ясно +33.4 +11.8 27 +33 +33 жарко 1001.7 1000.7
03 21.08 СЗ 2 10 км ясно +32.6 +11.5 28 +33 +33 жарко 1002.0 1001.0
06 21.08 С 2 10 км ясно +39.0 +13.1 22 +39 +50 очень
жарко
1003.3 1002.3 +32.2
09 21.08 С 4 10 км ясно +45.4 +13.1 15 +45 +58 опасность
перегрева
1002.8 1001.8
15 21.08 С 4 10 км ясно +45.0 +10.6 13 +44 +44 опасность
перегрева
1000.2 999.2
18 21.08 СЗ 4 10 км ясно +39.0 +12.1 20 +38 +38 очень
жарко
1001.0 1000.0 +48.5
21 21.08 СЗ 4 10 км ясно +36.2 +12.9 25 +36 +36 очень
жарко
1001.0 1000.0
03 22.08 СЗ 3 10 км 4/4 900 м
[Cu med, cong]
+31.0 +12.4 32 +32 +32 жарко 1001.0 1000.0
06 22.08 С 5 10 км 4/0
[Ac trans]
+37.0 +13.5 25 +37 +42 очень
жарко
1001.0 1000.0
09 22.08 С 4 10 км ясно +44.0 +11.5 15 +43 +56 опасность
перегрева
1000.4 999.4
15 22.08 С 4 10 км ясно +43.0 +10.7 15 +42 +42 опасность
перегрева
998.8 997.8
21 22.08 С 3 10 км ясно +34.8 +11.1 24 +34 +34 очень
жарко
999.0 998.0
00 23.08 С 3 10 км ясно +33.0 +11.2 26 +33 +33 жарко 999.0 998.0
03 23.08 С 3 10 км 3/3 900 м
[Cu med, cong]
+30.8 +10.1 28 +31 +31 жарко 999.4 998.4

 

Местоположение метеостанции Амара (Ирак): широта 31.85 долгота 47.17 высота над уровнем моря 9 м.

В архиве по умолчанию представлена погода в Амаре за последнюю неделю. Архивные данные за месяц целиком и за предыдущие месяцы, начиная с января 2011 года, Вы можете получить, выбрав интересующий диапазон дат из раскрывающегося списка и нажав кнопку "Ввод!".


*Определитесь, кто Вы:
робот инопланетянин человек

Внимание! Время в таблицах - всемирное. Для получения местного времени необходимо прибавить поправку, которая равна 3 ч.

Смотрите также архив погоды в соседних городах и на ближайших метеорологических станциях:

Погода в Али Аль-Гарби (Ирак) (81 км)
Погода в Рифаи (Ирак) (102 км)
Погода в Кут-аль-Хай (Ирак) (111 км)
Погода в Насирии (Ирак) (124 км)
Погода в Сафиабаде (Иран) (127 км)
Погода в Убайда Бин Аль Джарра (Ирак) (151 км)
Погода в Ахвазе (Иран) (153 км)
Погода в Басре (Ирак) (154 км)
Погода в Басре аэропорт (Ирак) (159 км)
Погода в Бадре (Ирак) (180 км)

Пояснения к столбцам:

Ветер - указаны скорость ветра в м/с - средняя за 10 мин, порывы в срок и между сроками (в фигурных скобках) и направление, откуда дует ветер: С - северный, СВ - северо-восточный, В - восточный, ЮВ - юго-восточный, Ю - южный, ЮЗ - юго-западный, З - западный, СЗ - северо-западный.
Видимость - горизонтальная дальность видимости в метрах или километрах. При видимости от 1 до 10 км при отсутствии осадков обычно наблюдается дымка, при ухудшении видимости до 1 км и менее - туман. В сухую погоду видимость может ухудшаться дымом, пылью или мглою.
Явления - указаны атмосферные явления, наблюдавшиеся в срок или в последний час перед сроком; фигурными скобками обозначены явления, наблюдавшиеся между сроками (за 1-3 часа до срока); квадратными скобками обозначены град или гололедные отложения с указанием их диаметра в мм.
Облачность - указаны через наклонную черту общая и нижняя облачность в баллах и высота нижней границы облаков в метрах; квадратными скобками обозначены формы облаков: Ci - перистые, Cs - перисто-слоистые, Cc - перисто-кучевые, Ac - высококучевые, As - высокослоистые, Sc - слоисто-кучевые, Ns - слоисто-дождевые, Cu - кучевые, Cb - кучево-дождевые. Подробнее классификацию облаков см. в Атласе облаков (PDF).
T - Температура воздуха - температура, измеренная на высоте 2 м над землей.
Td - Температура точки росы - температура, при понижении до которой содержащийся в воздухе водяной пар достигнет насыщения.
f - Относительная влажность воздуха - влажноcть воздуха, измеренная на высоте 2 м над землей.
Te - Эффективная температура - температура, которую ощущает одетый по сезону человек в тени. Характеристика душности погоды. При расчете учитывается влияние влажности воздуха и скорости ветра на теплоощущения человека.
Tes - Эффективная температура на солнце - температура, которую ощущает человек, с поправкой на солнечный нагрев. Характеристика знойности погоды. Зависит от высоты солнца над горизонтом, облачности и скорости ветра. Ночью, в пасмурную погоду, а также при ветре 12 м/с и более поправка равна нулю.
P - Атмосферное давление - приведенное к уровню моря атмосферное давление.
Po - Атмосферное давление - измеренное на уровне метеостанции атмосферное давление.
Tmin - Минимальная температура - минимум температуры воздуха на высоте 2 м над землей.
Tmax - Максимальная температура - максимум температуры воздуха на высоте 2 м над землей.
R - Количество осадков - Количество выпавших осадков за период времени, мм. При наведении курсора мыши на число - период времени, за который выпало указанное количество осадков.
R24 - Количество осадков - Количество выпавших осадков за 24 часа, мм.
S - Снежный покров - Высота снежного покрова, см. При наведении курсора мыши на число - состояние снежного покрова и степень покрытия местности в баллах.